Regional Weather Roundup
Issued by NWS

Home | Current Version | Previous Version | Text Only | Print | Product List | Glossary On
Versions: 1 2 3 4 5 6 7 8 9 10 11 12 13 14 15 16 17 18 19 20 21 22 23 24 25 26 27 28 29 30 31 32 33 34 35 36 37 38 39 40 41 42 43 44 45 46 47 48 49 50
900
ASUS44 KLIX 211113
RWRLA
LOUISIANA WEATHER ROUNDUP
NATIONAL WEATHER SERVICE NEW ORLEANS LA
500 AM CST SAT JAN 21 2017

NOTE: "FAIR" INDICATES FEW OR NO CLOUDS BELOW 12,000 FEET WITH NO
      SIGNIFICANT WEATHER AND/OR OBSTRUCTIONS TO VISIBILITY.
      SKY/WX - SKY CONDITION AND SIGNIFICANT WEATHER.
      TMP - AIR TEMPERATURE.    DP   - DEWPOINT TEMPERATURE.
      RH  - RELATIVE HUMIDITY.  PRES - PRESSURE.
      HX  - HEAT INDEX.         WCI  - WIND CHILL INDEX.

*  THESE STATIONS ARE NOT NWS OR FAA STATIONS AND ARE NOT UNDER
   NWS QUALITY CONTROL.

LAZ040-048-061>063-065-066-069-211200-
SOUTHEAST LOUISIANA

CITY           SKY/WX    TMP DP  RH WIND       PRES   REMARKS
N.O. AUDUBON   NOT AVBL
N.O. INTL ARPT CLOUDY    73  69  87 S20G30    29.66R
N.O. LAKEFRONT CLOUDY    72  69  90 S30G38    29.67R
N.O. DOWNTOWN*   N/A     73  69  87 S18G31    29.68R
RESERVE*       CLOUDY    76  72  87 SW20G28   29.68R
SLIDELL        CLOUDY    72  68  87 S12       29.68R
BATON ROUGE    LGT RAIN  63  60  90 NE15G21   29.70F
BOOTHVILLE     CLOUDY    68  68 100 S15G24    29.72R FOG
BELLE CHASSE   CLOUDY    73  70  90 SW22G30   29.68R
BOGALUSA*      CLOUDY    73  68  86 SW8G21    29.67S
GALLIANO*      CLOUDY    72  68  88 S13G21    29.70S
NEW ROADS*     PTSUNNY   61  58  92 NE9       29.68F
GONZALES*      CLOUDY    70  63  80 NW18G43   29.69R
HAMMOND*       CLOUDY    72  66  83 NW17G25   29.70R
HOUMA*         MOCLDY    72  70  93 S14G20    29.68S
PORT FOURCHON* CLOUDY    72  70  94 S12G17    29.71R FOG

$$

LAZ041-044-053-054-211200-
SOUTHWEST LOUISIANA

CITY           SKY/WX    TMP DP  RH WIND       PRES   REMARKS
LAKE CHARLES   MOCLDY    62  62 100 E6        29.66S
LAFAYETTE      CLOUDY    65  61  87 CALM      29.68S
PATTERSON      CLOUDY    72  70  93 SW15      29.68R
SALT POINT     NOT AVBL
NEW IBERIA     TSTM      63  59  87 N5        29.70F
CHENAULT AIRPK MOCLDY    60  60  98 E5        29.66F

$$

LAZ027-028-211200-
CENTRAL LOUISIANA

CITY           SKY/WX    TMP DP  RH WIND       PRES   REMARKS
FORT POLK      CLEAR     57  57  99 SE6       29.65R
ALEXANDRIA INT CLOUDY    58  57  97 SE8       29.64R
ALEXANDRIA     CLOUDY    57  57 100 SE3       29.65S

$$

LAZ001-002-211200-
NORTHWEST LOUISIANA

CITY           SKY/WX    TMP DP  RH WIND       PRES   REMARKS
SHREVEPORT     CLEAR     57  56  96 SE3       29.60F
BARKSDALE AFB  CLEAR     55  55 100 S6        29.61S
DTN SHREVEPORT CLEAR     57  54  89 SE5       29.61S

$$

LAZ014-016-211200-
NORTHEAST LOUISIANA

CITY           SKY/WX    TMP DP  RH WIND       PRES   REMARKS
MONROE         PTCLDY    60  56  86 S5        29.60F
TALLULAH       LGT RAIN  60  57  89 CALM      29.69F

$$





USA.gov is the U.S. government's official web portal to all federal, state and local government web resources and services.